Location: Notre Dame Regional High School Observatory
(37.3056°N, 89.6097°W)
Time: 09:21:38
(UTC-05:00)

Okean-O - Visible Passes

Search period start: 28 July 2014 00:00
Search period end: 07 August 2014 00:00
Orbit: 643 x 645 km, 98.0° (Epoch: 27 July)

Date Brightness Start Highest point End Pass type
(mag) Time Alt. Az. Time Alt. Az. Time Alt. Az.
28 Jul 4.7 03:32:33 10° NE 03:35:57 21° E 03:38:43 13° SE visible
28 Jul 3.6 05:08:37 10° N 05:12:31 31° WNW 05:16:22 10° SW visible
29 Jul 3.8 03:56:35 10° NNE 04:00:46 40° E 04:03:38 18° SSE visible
30 Jul 2.7 04:21:02 10° NNE 04:25:30 78° ESE 04:28:33 20° S visible
31 Jul 5.3 03:11:38 10° ENE 03:13:16 12° E 03:14:54 10° ESE visible
31 Jul 2.8 04:45:48 10° N 04:50:09 55° WNW 04:53:28 17° SSW visible
01 Aug 4.7 03:34:40 10° NE 03:38:10 22° E 03:40:43 14° SE visible
01 Aug 3.7 05:10:52 10° N 05:14:42 29° WNW 05:18:22 11° SW visible
02 Aug 3.7 03:58:44 10° NNE 04:02:58 42° E 04:05:37 20° SSE visible
02 Aug 4.4 05:36:24 10° NNW 05:39:10 17° WNW 05:41:57 10° WSW visible
03 Aug 2.6 04:23:13 10° NNE 04:27:41 82° ESE 04:30:32 22° S visible
04 Aug 5.3 03:13:34 10° ENE 03:15:28 13° E 03:17:22 10° ESE visible
04 Aug 2.9 04:48:00 10° N 04:52:19 52° WNW 04:55:26 18° SW visible
05 Aug 4.6 03:36:46 10° NE 03:40:21 24° E 03:42:41 16° SE visible
05 Aug 3.7 05:13:05 10° NNW 05:16:52 28° WNW 05:20:21 12° SW visible
06 Aug 3.6 04:00:53 10° NNE 04:05:09 44° E 04:07:35 23° SSE visible
